Date String (YYYY-MM-DD hh:mm:ss) UTC,Instrument flags,Ambient pressure (hPa),Sample flow (lpm),Bypass flow (lpm),Sample temperature (°C),Ambient temperature (°C),ASC tube jacket temperature (°C),LED temperature (°C),Box temperature (°C),Sample RH (%),Span deviation,Mass concentration (μg/m³),Mass concentration (μg/m³),Mass concentration (μg/m³)
DateTimeUTC,F1_M11,P_M11,Q1_M11,Q2_M11,T1_M11,T2_M11,T3_M11,T4_M11,T5_M11,U1_M11,ZSPAN_M11,X0_M11,X2_M11,X1_M11
2022-06-05 21:00:00,,0819.1,5.01,0.00,29.1,27.8,00.0,37.9,31.1,16.7,0000.0,0012.52,0004.05,0002.45
2022-06-05 21:01:00,,0819.2,5.00,0.00,29.2,28.0,00.0,38.0,31.1,16.4,0000.0,0012.29,0004.05,0002.44
2022-06-05 21:02:00,,0819.3,4.99,0.00,29.2,28.1,00.0,38.0,31.2,16.9,0000.0,0012.64,0004.11,0002.44
2022-06-05 21:03:00,,0819.1,5.01,0.00,29.2,28.3,00.0,38.0,31.2,17.9,0000.0,0011.39,0004.08,0002.45
2022-06-05 21:04:00,,0819.2,5.00,0.00,29.3,28.2,00.0,38.0,31.2,16.3,0000.0,0011.07,0004.06,0002.43
2022-06-05 21:05:00,,0819.2,5.01,0.00,29.2,27.4,00.0,37.9,31.0,17.0,0000.0,0011.01,0004.06,0002.40
2022-06-05 21:06:00,,0819.2,5.00,0.00,29.1,26.9,00.0,37.9,30.9,17.1,0000.0,0011.04,0004.06,0002.38
2022-06-05 21:07:00,,0819.2,4.99,0.00,29.1,26.9,00.0,37.9,30.8,18.0,0000.0,0011.06,0004.02,0002.38
2022-06-05 21:08:00,,0819.2,5.00,0.00,29.0,27.0,00.0,37.9,30.8,19.0,0000.0,0011.82,0004.03,0002.37
2022-06-05 21:09:00,,0819.2,5.01,0.00,29.0,27.1,00.0,37.9,30.8,17.6,0000.0,0011.99,0004.05,0002.34
2022-06-05 21:10:00,,0819.3,5.01,0.00,29.0,27.3,00.0,37.9,30.9,16.6,0000.0,0011.76,0004.04,0002.32
2022-06-05 21:11:00,,0819.3,5.00,0.00,29.0,27.5,00.0,37.9,30.9,17.5,0000.0,0012.35,0004.02,0002.30
2022-06-05 21:12:00,,0819.4,5.00,0.00,29.0,27.6,00.0,37.9,31.0,16.5,0000.0,0011.97,0003.99,0002.28
2022-06-05 21:13:00,,0819.4,5.00,0.00,29.0,27.8,00.0,37.9,31.0,17.3,0000.0,0011.17,0003.96,0002.23
2022-06-05 21:14:00,,0819.4,5.00,0.00,29.1,27.9,00.0,37.9,31.0,17.6,0000.0,0011.50,0003.93,0002.17
2022-06-05 21:15:00,,0819.4,5.00,0.00,29.1,28.0,00.0,37.9,31.1,17.4,0000.0,0011.36,0003.84,0002.11
2022-06-05 21:16:00,,0819.4,4.99,0.00,29.1,28.1,00.0,37.9,31.1,18.0,0000.0,0011.18,0003.75,0002.07
2022-06-05 21:17:00,,0819.4,4.99,0.00,29.1,28.2,00.0,38.0,31.2,18.6,0000.0,0011.31,0003.71,0002.02
2022-06-05 21:18:00,,0819.4,5.00,0.00,29.2,28.3,00.0,38.0,31.2,17.8,0000.0,0011.63,0003.71,0001.98
2022-06-05 21:19:00,,0819.4,5.00,0.00,29.2,28.2,00.0,38.0,31.2,18.8,0000.0,0010.75,0003.69,0001.96
2022-06-05 21:20:00,,0819.4,5.01,0.00,29.2,27.6,00.0,37.9,31.0,19.0,0000.0,0010.67,0003.66,0001.94
2022-06-05 21:21:00,,0819.4,5.00,0.00,29.2,27.4,00.0,37.9,30.9,18.6,0000.0,0010.39,0003.63,0001.91
2022-06-05 21:22:00,,0819.4,4.98,0.00,29.1,27.4,00.0,37.9,30.9,17.9,0000.0,0009.64,0003.57,0001.87
2022-06-05 21:23:00,,0819.4,4.99,0.00,29.1,27.4,00.0,37.9,31.0,16.9,0000.0,0009.46,0003.51,0001.83
2022-06-05 21:24:00,,0819.4,5.00,0.00,29.1,27.6,00.0,37.9,31.0,17.3,0000.0,0009.21,0003.42,0001.79
2022-06-05 21:25:00,,0819.2,5.01,0.00,29.1,27.7,00.0,37.9,31.0,17.4,0000.0,0009.05,0003.37,0001.75
2022-06-05 21:26:00,,0819.4,4.99,0.00,29.1,27.9,00.0,37.9,31.1,17.5,0000.0,0009.00,0003.33,0001.73
2022-06-05 21:27:00,,0819.5,5.00,0.00,29.2,28.0,00.0,37.9,31.1,16.9,0000.0,0008.95,0003.31,0001.69
2022-06-05 21:28:00,,0819.4,5.00,0.00,29.2,28.1,00.0,38.0,31.2,17.1,0000.0,0008.72,0003.28,0001.66
2022-06-05 21:29:00,,0819.4,5.00,0.00,29.2,28.3,00.0,38.0,31.2,17.3,0000.0,0008.18,0003.22,0001.61
2022-06-05 21:30:00,,0819.4,5.00,0.00,29.2,27.9,00.0,38.0,31.1,17.4,0000.0,0007.68,0003.18,0001.56
2022-06-05 21:31:00,,0819.4,4.99,0.00,29.2,26.9,00.0,37.9,30.8,16.9,0000.0,0007.22,0003.09,0001.51
2022-06-05 21:32:00,,0819.5,5.00,0.00,29.1,26.6,00.0,37.8,30.7,16.3,0000.0,0007.11,0002.99,0001.47
2022-06-05 21:33:00,,0819.5,5.00,0.00,29.0,26.6,00.0,37.8,30.7,16.7,0000.0,0007.06,0002.92,0001.44
2022-06-05 21:34:00,,0819.5,4.99,0.00,28.9,26.8,00.0,37.8,30.7,18.7,0000.0,0007.17,0002.89,0001.41
2022-06-05 21:35:00,,0819.5,5.01,0.00,28.9,26.9,00.0,37.8,30.7,18.4,0000.0,0007.40,0002.90,0001.39
2022-06-05 21:36:00,,0819.4,5.01,0.00,28.9,27.2,00.0,37.8,30.8,18.9,0000.0,0007.84,0002.87,0001.38
2022-06-05 21:37:00,,0819.2,5.00,0.00,29.0,27.3,00.0,37.8,30.9,19.4,0000.0,0008.47,0002.93,0001.40
2022-06-05 21:38:00,,0819.3,4.99,0.00,29.0,27.5,00.0,37.8,30.9,19.3,0000.0,0008.57,0002.99,0001.40
2022-06-05 21:39:00,,0819.3,5.00,0.00,29.0,27.7,00.0,37.8,30.9,18.7,0000.0,0008.94,0003.06,0001.39
2022-06-05 21:40:00,,0819.4,5.00,0.00,29.0,27.8,00.0,37.8,31.0,18.5,0000.0,0009.36,0002.99,0001.39
2022-06-05 21:41:00,,0819.4,5.00,0.00,29.1,28.0,00.0,37.8,31.0,18.9,0000.0,0009.23,0002.88,0001.37
2022-06-05 21:42:00,,0819.3,5.01,0.00,29.1,28.1,00.0,37.9,31.1,19.3,0000.0,0009.19,0002.87,0001.36
2022-06-05 21:43:00,,0819.3,4.99,0.00,29.1,28.2,00.0,37.9,31.1,18.8,0000.0,0010.19,0002.84,0001.36
2022-06-05 21:44:00,,0819.3,5.00,0.00,29.2,28.3,00.0,37.9,31.2,18.1,0000.0,0010.33,0002.89,0001.39
2022-06-05 21:45:00,,0819.4,5.00,0.00,29.2,28.2,00.0,37.9,31.2,18.3,0000.0,0010.24,0002.96,0001.42
2022-06-05 21:46:00,,0819.5,4.99,0.00,29.2,27.6,00.0,37.9,31.0,18.2,0000.0,0010.27,0003.07,0001.46
2022-06-05 21:47:00,,0819.4,4.99,0.00,29.1,27.2,00.0,37.8,30.9,18.2,0000.0,0009.85,0003.17,0001.50
2022-06-05 21:48:00,,0819.4,5.01,0.00,29.1,27.2,00.0,37.8,30.9,18.5,0000.0,0009.27,0003.18,0001.50
2022-06-05 21:49:00,,0819.2,5.00,0.00,29.0,27.3,00.0,37.8,30.9,19.0,0000.0,0009.43,0003.21,0001.52
2022-06-05 21:50:00,,0819.1,5.00,0.00,29.0,27.4,00.0,37.8,30.9,18.6,0000.0,0009.17,0003.19,0001.54
2022-06-05 21:51:00,,0819.1,5.01,0.00,29.0,27.6,00.0,37.8,30.9,18.1,0000.0,0008.79,0003.23,0001.55
2022-06-05 21:52:00,,0819.0,5.01,0.00,29.1,27.7,00.0,37.9,31.0,18.4,0000.0,0008.89,0003.28,0001.57
2022-06-05 21:53:00,,0818.9,5.00,0.00,29.1,27.8,00.0,37.9,31.0,18.5,0000.0,0008.89,0003.28,0001.57
2022-06-05 21:54:00,,0818.9,4.99,0.00,29.1,28.0,00.0,37.9,31.1,17.6,0000.0,0007.86,0003.31,0001.57
2022-06-05 21:55:00,,0818.8,5.00,0.00,29.1,28.1,00.0,37.9,31.1,17.6,0000.0,0007.77,0003.30,0001.52
2022-06-05 21:56:00,,0818.9,5.00,0.00,29.2,28.2,00.0,37.9,31.1,17.4,0000.0,0007.95,0003.30,0001.47
2022-06-05 21:57:00,,0819.0,5.00,0.00,29.2,28.3,00.0,37.9,31.2,17.7,0000.0,0007.96,0003.22,0001.41
2022-06-05 21:58:00,,0818.9,5.00,0.00,29.2,28.3,00.0,38.0,31.2,18.1,0000.0,0007.88,0003.15,0001.34
2022-06-05 21:59:00,,0818.9,4.99,0.00,29.2,28.2,00.0,38.0,31.2,18.4,0000.0,0008.01,0003.11,0001.28
